Dhaalu Atoll Airport


Codes: VRMU/DDD
Name: Dhaalu Atoll Airport
City: Kudahuvadhoo
Country: Maldives
Elevation: 6 ft.

Photos at Dhaalu Atoll Airport


   Photos courtesy of SpottingLog. You can add your own sightings and photos by signing up for a free trial today.



No photos found.

Weather at Dhaalu Atoll Airport


Time (UTC)DescriptionTempratureWindCloud coverageVisibilityPressureHumidity
26-Jun-2024 00:00Light Rain29°C16 mph, SW98%10000m1007hPa76%
26-Jun-2024 03:00Light Rain29°C16 mph, SW99%10000m1008hPa76%
26-Jun-2024 06:00Light Rain29°C13 mph, SW99%10000m1008hPa78%
26-Jun-2024 09:00Light Rain29°C16 mph, SW100%10000m1007hPa76%
26-Jun-2024 12:00Light Rain29°C13 mph, SW100%10000m1007hPa77%
26-Jun-2024 15:00Overcast Clouds29°C11 mph, W100%10000m1009hPa77%
26-Jun-2024 18:00Overcast Clouds29°C11 mph, W100%10000m1009hPa76%
26-Jun-2024 21:00Overcast Clouds29°C11 mph, W100%10000m1008hPa75%
27-Jun-2024 00:00Overcast Clouds29°C11 mph, SW100%10000m1008hPa74%
27-Jun-2024 03:00Overcast Clouds29°C11 mph, SW100%10000m1010hPa72%
27-Jun-2024 06:00Overcast Clouds29°C9 mph, W99%10000m1010hPa70%
27-Jun-2024 09:00Overcast Clouds29°C13 mph, W92%10000m1008hPa71%
27-Jun-2024 12:00Overcast Clouds29°C11 mph, W96%10000m1009hPa73%
27-Jun-2024 15:00Overcast Clouds29°C13 mph, W100%10000m1010hPa75%
27-Jun-2024 18:00Overcast Clouds29°C11 mph, W100%10000m1011hPa73%
27-Jun-2024 21:00Overcast Clouds29°C11 mph, W100%10000m1009hPa72%
28-Jun-2024 00:00Overcast Clouds29°C9 mph, W100%10000m1009hPa74%
28-Jun-2024 03:00Overcast Clouds29°C9 mph, W100%10000m1011hPa75%
28-Jun-2024 06:00Overcast Clouds29°C9 mph, W99%10000m1010hPa75%
28-Jun-2024 09:00Overcast Clouds29°C9 mph, W100%10000m1009hPa74%
28-Jun-2024 12:00Light Rain29°C11 mph, W100%10000m1009hPa75%
28-Jun-2024 15:00Light Rain28°C7 mph, W100%10000m1011hPa76%
28-Jun-2024 18:00Light Rain28°C7 mph, SW92%10000m1011hPa75%
28-Jun-2024 21:00Broken Clouds28°C7 mph, SW83%10000m1009hPa75%
29-Jun-2024 00:00Broken Clouds28°C4 mph, SW83%10000m1009hPa76%
29-Jun-2024 03:00Overcast Clouds28°C9 mph, W100%10000m1010hPa76%
29-Jun-2024 06:00Overcast Clouds29°C7 mph, SW100%10000m1010hPa73%
29-Jun-2024 09:00Overcast Clouds29°C7 mph, SW100%10000m1009hPa68%
29-Jun-2024 12:00Overcast Clouds29°C7 mph, SW100%10000m1009hPa70%
29-Jun-2024 15:00Overcast Clouds29°C7 mph, S100%10000m1010hPa71%
29-Jun-2024 18:00Overcast Clouds28°C7 mph, S91%10000m1011hPa70%
29-Jun-2024 21:00Clear Sky28°C7 mph, S3%10000m1009hPa70%
30-Jun-2024 00:00Clear Sky28°C4 mph, S9%10000m1010hPa70%
30-Jun-2024 03:00Overcast Clouds28°C4 mph, S88%10000m1011hPa71%
30-Jun-2024 06:00Overcast Clouds28°C7 mph, S88%10000m1011hPa73%
30-Jun-2024 09:00Broken Clouds29°C7 mph, S76%10000m1010hPa71%
30-Jun-2024 12:00Broken Clouds29°C7 mph, S61%10000m1009hPa69%
30-Jun-2024 15:00Broken Clouds29°C7 mph, S81%10000m1010hPa69%
30-Jun-2024 18:00Overcast Clouds29°C7 mph, S85%10000m1011hPa72%
30-Jun-2024 21:00Overcast Clouds28°C7 mph, S100%10000m1010hPa74%